AVUM R/B, 49467

Orbit data source: Space-Track

AVUM R/B, 49467 is space debris in LEO originally from a launch on Tue, 16 Nov 2021 UTC launched from the French Guiana (FRGUI). Debris objects in space refer to the collection of defunct objects orbiting the Earth. Examples of debris include non-operational satellites, rocket bodies, and fragments generated from explosions, collisions, or faulty payload assembly.

Loading next visibility...
Identifier
49467, 2021-105D
Orbit
LEO
Country
Flag of FRFR
Related business
Manufacturer
Avio
Mission
Spacecraft
Bus & Motor
AVUM, Unknown motor
Mass
Wet unknown, 660 kg dry
Launch date (UTC)
2021-11-16 (5 years ago)
Launch vehicle
Unknown
Launch site
French Guiana (FRGUI)
Object type
Payload
Rocket body
Debris
Shape & HBR
Cone + Cyl, 1.1 m
Radar Cross Section
3.876 m², Large (>1 m²)

Expand to show TLE details & history
Last TLE update: 2 days ago

TLE from 2 days ago
0 AVUM R/B
1 49467U 21105D   26171.34020368  .00006846  00000-0  18863-3 0  9995
2 49467  74.9222  76.2672 0081606 308.6541  50.7384 15.33891590254367
Epoch: 2026-06-20T08:09Z
TLE epoch observation values (Epoch: 2026-06-20T08:09:53.597Z)
Latitude
-0.00007°
Longitude
45.23763°
Altitude
431.926 km
Speed
7.672 km/s
True Right ascension
05h 05m 04s
True Declination
0° 00' 00"
Sunlit
Object was in daylight at epoch
Visualization orbit readout
Latitude
Unknown
Longitude
Unknown
Altitude
Unknown
Speed
Unknown
Apparent Right ascension
Unknown
Apparent Declination
Unknown
Sunlit
N/A
Visualization observer readout
Local Sidereal Time
21:39:35
Azimuth
Unknown
Elevation
Unknown
Doppler factor
Unknown
Orbital elements
Apogee altitude
517.471 km
Perigee altitude
405.838 km
Semi-major axis
6,839.791 km
Eccentricity
0.00816
Inclination
74.9222°
RAAN
76.2672°
Arg. of periapsis
308.6541°
True anomaly
51.46713°
Mean anomaly
50.7384°
Eccentric anomaly
51.10229°
Mean motion
3.83689 °/min
Orbital period
93.83 mins
BSTAR
0.00018863
Loading maneuver chart data...
Computing Atmospheric mass density...
Loading historical data...
Loading historical data...
Loading historical data...
Loading historical data...
Loading historical data...
Loading historical data...
Loading historical data...
Other satellites on launch #105 in the year 2021 (2021-11-16 UTC)

Documentation

Showing up to 5 results
|